Find Starlink 11564

NORAD ID: 62913 Int'l Des: 2025-027 Owner: SPXS Country: US Constellation: starlink operational
別名: STARLINK-11564 [DTC] celestrak
LEOCIRCULAR

現在のビュー

3D地球を読み込み中...

About Starlink 11564

Starlink 11564 (NORAD 62913) is a starlink constellation satellite (v2 mini d2c) launched Feb 8, 2025 by SPXS of US. It operates in LEO, CIRCULAR orbit with a mass of 960.00 kg.

次回通過

Passes for default location (London). Set your location on the main map for personalized predictions.

高度履歴

Loading altitude history...

軌道要素

1 62913U 25027G 26248.39861042 .00103620 00000-0 80214-3 0 9992
2 62913 43.0000 344.6198 0001645 261.8029 98.2652 15.70805872 91419
Epoch: Sep 5, 2026 • Age: 11 hours

現在のステータス

高度 356.0 km
遠地点 / 近地点 N/A
速度 7.70 km/s
衛星直下点 0.16°N, 138.55°W
打ち上げ日 Feb 8, 2025
運用期間 1.5 years
タイプ internet

技術仕様

分類 Payload
質量 960.00 kg
乾燥質量 910.00 kg
総質量 960.00 kg
長さ 0.30 m
直径 4.10 m
スパン 29.00 m
形状 Box + pan
製造者 SPXS
バスタイプ Starlink V2MD
フェーズステータス In Orbit
所有者/国 SPXS/US

Most Searched